Location: Orange Harbor Mobile Home Park
(26.6923°N, 81.7937°W)
Time: 07:14:07
(UTC+00:00)

Cosmos 2360 Rocket - Pass Details

Date: 19 September 2020
Orbit: 835 x 844 km, 71.0° (Epoch: 29 October)

Event Time Altitude Azimuth Distance (km) Brightness Sun altitude
Rises 10:46:02 0° 219° (SW) 3,386 4.9 -7.2°
Reaches altitude 10° 10:48:40 10° 228° (SW) 2,454 4.1 -6.6°
Maximum altitude 10:53:47 35° 293° (WNW) 1,327 2.8 -5.5°
Drops below altitude 10° 10:58:55 10° 359° (N) 2,462 4.7 -4.3°
Sets 11:01:35 0° 8° (N) 3,399 5.5 -3.8°
